Flag for Canada Weather past 2 weeks in Fort Nelson, British Columbia, Canada

Now
-4 °F

Passing clouds.


Feels Like: -4 °F
Forecast: -7 / 1 °F
Wind: No wind

Location: Fort Nelson

Current Time: Dec 18, 2014 at 3:41:33 AM

Latest Report: Dec 18, 2014 at 3:00 AM


Visibility: 15 mi

Pressure: 29.91 "Hg

Humidity: 77%

Dew point: -9 °F

Location of Fort NelsonLocation

Historic Weather in Fort Nelson — Graph

°F

Fort Nelson temperature yesterday

Maximum temperature yesterday: 3 °F (at 6:00 PM)
Minimum temperature yesterday: -11 °F (at 2:00 AM)
Average temperature yesterday: -5 °F

Past Weeks' High & Low Weather Summary

 TemperatureHumidityPressure
High9 °F (Dec 9, 12:00 PM)92% (Dec 5, 11:00 PM)30.38 "Hg (Dec 5, 11:00 PM)
Low-18 °F (Dec 5, 8:00 AM)71% (Dec 13, 1:00 PM)29.32 "Hg (Dec 9, 1:00 PM)
Average-3 °F83%29.94 "Hg
* Reported Dec 3 2:00 AM — Dec 18 2:00 AM, Fort Nelson, Weather by CustomWeather, © 2014

Note: Actual official high and low records may vary slightly from our data, if they occured in-between our weather recording intervals... More about our weather records

Advertising

Fort Nelson weather history for previous 24 hours

 ConditionsComfort  
Time TempWeatherWind HumidityBarometerVisibility
2:00 AM
Dec 18
-4 °FPassing clouds.5 mph84%29.91 "Hg15 mi
1:00 AM-4 °FPassing clouds.3 mph84%29.90 "Hg15 mi
12:00 AM-2 °FPassing clouds.No wind84%29.91 "Hg15 mi
11:00 PM
Dec 17
0 °FPassing clouds.No wind84%29.90 "Hg15 mi
10:00 PM1 °FPassing clouds.No wind85%29.90 "Hg15 mi
9:00 PM3 °FPassing clouds.2 mph78%29.90 "Hg15 mi
8:00 PM1 °FPassing clouds.No wind85%29.90 "Hg15 mi
7:00 PM3 °FPassing clouds.2 mph85%29.90 "Hg15 mi
6:00 PM3 °FPassing clouds.2 mph85%29.89 "Hg15 mi
5:00 PM1 °FLight snow. Passing clouds.No wind85%29.89 "Hg15 mi
4:00 PM1 °FPassing clouds.No wind78%29.89 "Hg15 mi
3:00 PM0 °FPartly sunny.No wind78%29.88 "Hg15 mi
2:00 PM0 °FBroken clouds.No wind78%29.87 "Hg30 mi
1:00 PM-4 °FBroken clouds.2 mph77%29.87 "Hg15 mi
12:00 PM-8 °FBroken clouds.No wind84%29.87 "Hg15 mi
11:00 AM-8 °FBroken clouds.2 mph84%29.87 "Hg15 mi
10:00 AM-9 °FPartly sunny.No wind77%29.87 "Hg15 mi
9:00 AM-11 °FPartly sunny.No wind84%29.87 "Hg15 mi
8:00 AM-9 °FPassing clouds.2 mph77%29.85 "Hg15 mi
7:00 AM-11 °FPassing clouds.No wind84%29.85 "Hg15 mi
6:00 AM-9 °FPassing clouds.No wind77%29.85 "Hg15 mi
5:00 AM-11 °FPassing clouds.No wind84%29.84 "Hg15 mi
4:00 AM-11 °FPassing clouds.2 mph76%29.84 "Hg15 mi
3:00 AM-9 °FClear.No wind77%29.83 "Hg15 mi
Weather by CustomWeather, © 2014

See weather overviewHow to use our weather pages